DW2485 Weather Reports


Display with metric or nautical units.
time (UTC)temp
F
wind
direction
speed
MPH
gust
MPH
rain 1hr
in
rain 24hr
in
rain mn
in
humidity
%
barometer
mb
20260904162004 94 250 6.0 9.0 0.00 0.00 0.00 59 1015.0
20260904161005 92 246 4.0 12.0 0.00 0.00 0.00 62 1014.9
20260904160504 91 230 6.0 10.0 0.00 0.00 0.00 62 1014.9
20260904160005 91 218 7.0 10.0 0.00 0.00 0.00 62 1014.9
20260904155504 91 244 3.0 8.0 0.00 0.00 0.00 63 1014.9
20260904155005 91 247 3.0 8.0 0.00 0.00 0.00 65 1014.8
20260904152504 90 239 5.0 9.0 0.00 0.00 0.00 65 1015.0
20260904151504 89 273 6.0 12.0 0.00 0.00 0.00 67 1014.9
20260904144005 86 238 5.0 8.0 0.00 0.00 0.00 71 1014.7
20260904142004 84 220 3.0 7.0 0.00 0.00 0.00 77 1014.5
20260904140505 83 232 3.0 5.0 0.00 0.00 0.00 79 1014.5
20260904135004 81 224 2.0 5.0 0.00 0.00 0.00 82 1014.4
20260904134005 80 204 3.0 5.0 0.00 0.00 0.00 83 1014.4
20260904133504 80 222 3.0 3.0 0.00 0.00 0.00 84 1014.4
20260904132005 78 174 1.0 2.0 0.00 0.00 0.00 85 1014.4
20260904131504 77 225 1.0 2.0 0.00 0.00 0.00 86 1014.4
20260904131005 77 253 0.0 2.0 0.00 0.00 0.00 86 1014.4
20260904125506 76 199 2.0 3.0 0.00 0.00 0.00 89 1014.3
20260904123005 74 165 1.0 3.0 0.00 0.00 0.00 91 1014.1
20260904122504 74 209 1.0 2.0 0.00 0.00 0.00 91 1014.0
20260904122004 73 213 2.0 3.0 0.00 0.00 0.00 92 1013.9
20260904121004 73 209 2.0 2.0 0.00 0.00 0.00 93 1013.9
20260904120004 73 209 2.0 2.0 0.00 0.00 0.00 92 1013.9
20260904114504 72 209 2.0 3.0 0.00 0.00 0.00 93 1013.8
20260904112505 72 198 2.0 3.0 0.00 0.00 0.00 94 1013.6
20260904111005 72 181 2.0 2.0 0.00 0.00 0.00 94 1013.4
20260904110504 72 152 2.0 2.0 0.00 0.00 0.00 94 1013.5
20260904105504 72 144 1.0 2.0 0.00 0.00 0.00 94 1013.4
20260904105004 72 144 1.0 2.0 0.00 0.00 0.00 93 1013.4
20260904104005 72 144 1.0 1.0 0.00 0.00 0.00 93 1013.5
20260904103504 73 143 1.0 1.0 0.00 0.00 0.00 93 1013.5
20260904103005 73 144 0.0 1.0 0.00 0.00 0.00 94 1013.6
20260904102504 72 144 0.0 2.0 0.00 0.00 0.00 94 1013.6
20260904102004 72 144 1.0 1.0 0.00 0.00 0.00 93 1013.6
20260904101004 73 144 1.0 2.0 0.00 0.00 0.00 93 1013.6
20260904095504 73 159 2.0 2.0 0.00 0.00 0.00 93 1013.7
20260904095004 73 157 2.0 2.0 0.00 0.00 0.00 93 1013.7
20260904093504 73 159 1.0 2.0 0.00 0.00 0.00 92 1013.6
20260904093004 73 159 1.0 2.0 0.00 0.00 0.00 93 1013.7
20260904092004 73 159 0.0 2.0 0.00 0.00 0.00 93 1013.6
20260904091504 73 159 1.0 1.0 0.00 0.00 0.00 92 1013.6
20260904090004 74 159 1.0 2.0 0.00 0.00 0.00 92 1013.3
20260904085504 74 159 2.0 3.0 0.00 0.00 0.00 92 1013.3
20260904085004 74 182 2.0 2.0 0.00 0.00 0.00 92 1013.2
20260904084503 74 182 1.0 2.0 0.00 0.00 0.00 92 1013.0
20260904084004 74 182 0.0 1.0 0.00 0.00 0.00 92 1013.0
20260904083504 74 182 1.0 3.0 0.00 0.00 0.00 92 1012.9
20260904083004 74 198 1.0 2.0 0.00 0.00 0.00 92 1012.9
20260904082504 74 198 1.0 2.0 0.00 0.00 0.00 91 1012.8
20260904081004 75 186 2.0 3.0 0.00 0.00 0.00 91 1012.8
20260904080503 75 179 2.0 3.0 0.00 0.00 0.00 92 1012.9
20260904080004 75 173 2.0 5.0 0.00 0.00 0.00 92 1012.9
20260904075004 75 170 2.0 3.0 0.00 0.00 0.00 92 1012.9
20260904074504 75 171 2.0 3.0 0.00 0.00 0.00 92 1012.9
20260904074004 75 162 2.0 3.0 0.00 0.00 0.00 91 1013.0
20260904072504 75 166 3.0 3.0 0.00 0.00 0.00 91 1013.1
20260904071004 75 155 2.0 3.0 0.00 0.00 0.00 91 1013.3
20260904070504 75 155 2.0 3.0 0.00 0.00 0.00 91 1013.4
20260904065504 75 155 2.0 3.0 0.00 0.00 0.00 92 1013.5
20260904065004 75 155 2.0 3.0 0.00 0.00 0.00 92 1013.5
20260904063003 76 155 2.0 3.0 0.00 0.00 0.00 91 1013.7
20260904061004 76 186 1.0 2.0 0.00 0.00 0.00 90 1013.8
20260904060504 76 186 0.0 2.0 0.00 0.00 0.00 90 1013.8
20260904060004 76 186 0.0 2.0 0.00 0.00 0.00 90 1013.8
20260904055003 77 186 1.0 2.0 0.00 0.00 0.00 90 1013.8
20260904054004 77 178 1.0 3.0 0.00 0.00 0.00 89 1013.8
20260904053504 77 176 1.0 3.0 0.00 0.00 0.00 89 1013.8
20260904052503 77 161 2.0 3.0 0.00 0.00 0.00 89 1013.8
20260904050504 77 155 2.0 3.0 0.00 0.00 0.00 89 1013.5
20260904044503 78 147 3.0 5.0 0.00 0.00 0.00 88 1013.7
20260904043006 78 140 4.0 5.0 0.00 0.00 0.00 88 1013.7
20260904042006 78 142 3.0 5.0 0.00 0.00 0.00 87 1013.7
20260904041006 79 149 3.0 5.0 0.00 0.00 0.00 87 1013.8
20260904040505 79 150 3.0 5.0 0.00 0.00 0.00 87 1013.8
20260904040006 79 141 2.0 3.0 0.00 0.00 0.00 86 1013.7
20260904035505 79 135 3.0 3.0 0.00 0.00 0.00 86 1013.7
20260904035006 79 145 2.0 3.0 0.00 0.00 0.00 86 1013.7
20260904034505 79 143 3.0 3.0 0.00 0.00 0.00 86 1013.8
20260904033005 80 150 2.0 5.0 0.00 0.00 0.00 84 1013.7
20260904032506 80 146 3.0 5.0 0.00 0.00 0.00 84 1013.7
20260904031506 81 148 3.0 6.0 0.00 0.00 0.00 83 1013.5
20260904031006 81 158 4.0 6.0 0.00 0.00 0.00 83 1013.4
20260904030506 81 148 4.0 6.0 0.00 0.00 0.00 83 1013.4
20260904025005 81 154 5.0 7.0 0.00 0.00 0.00 82 1013.2
20260904024505 82 143 5.0 8.0 0.00 0.00 0.00 82 1013.2
20260904024006 82 143 5.0 8.0 0.00 0.00 0.00 82 1013.2
20260904022505 81 142 6.0 9.0 0.00 0.00 0.00 83 1013.1
20260904022005 81 146 5.0 8.0 0.00 0.00 0.00 84 1013.0
20260904020006 80 123 3.0 3.0 0.00 0.00 0.00 86 1013.0
20260904015506 80 114 3.0 3.0 0.00 0.00 0.00 86 1013.1
20260904015006 80 112 2.0 3.0 0.00 0.00 0.00 84 1013.0
20260904014506 81 122 2.0 3.0 0.00 0.00 0.00 84 1013.0
20260904013506 81 110 2.0 3.0 0.00 0.00 0.00 83 1013.0
20260904012508 82 111 3.0 3.0 0.00 0.00 0.00 81 1012.8
20260904011005 83 123 3.0 3.0 0.00 0.00 0.00 80 1012.5
20260904010506 83 124 3.0 6.0 0.00 0.00 0.00 80 1012.4
20260904005506 83 129 3.0 3.0 0.00 0.00 0.00 81 1012.3
20260904005006 83 121 2.0 3.0 0.00 0.00 0.00 80 1012.4
20260904004506 83 106 2.0 2.0 0.00 0.00 0.00 78 1012.4
20260904002006 86 157 2.0 3.0 0.00 0.00 0.00 74 1012.2
20260904001505 87 158 2.0 3.0 0.00 0.00 0.00 73 1012.2
20260904000006 87 160 3.0 6.0 0.00 0.00 0.00 71 1012.0
20260903235505 87 167 4.0 7.0 0.00 0.00 0.00 71 1011.9
20260903235006 88 167 5.0 8.0 0.00 0.00 0.00 71 1011.9
20260903234506 88 177 6.0 9.0 0.00 0.00 0.00 70 1011.8
20260903234006 89 165 5.0 9.0 0.00 0.00 0.00 70 1011.8
20260903233505 89 178 5.0 8.0 0.00 0.00 0.00 70 1011.8
20260903233005 89 180 5.0 8.0 0.00 0.00 0.00 69 1011.7
20260903232505 89 182 6.0 10.0 0.00 0.00 0.00 68 1011.8
20260903231005 90 179 5.0 14.0 0.00 0.00 0.00 67 1011.7
20260903230505 90 187 6.0 12.0 0.00 0.00 0.00 66 1011.6
20260903230005 90 159 8.0 14.0 0.00 0.00 0.00 66 1011.5
20260903225005 90 181 9.0 14.0 0.00 0.00 0.00 65 1011.6
20260903224005 90 190 8.0 12.0 0.00 0.00 0.00 66 1011.6
20260903223005 90 164 7.0 12.0 0.00 0.00 0.00 66 1011.6
20260903222505 90 181 6.0 15.0 0.00 0.00 0.00 65 1011.5
20260903221006 91 168 10.0 16.0 0.00 0.00 0.00 63 1011.4
20260903220005 92 169 10.0 16.0 0.00 0.00 0.00 60 1011.9
20260903215505 93 178 9.0 15.0 0.00 0.00 0.00 60 1012.1
20260903214505 94 171 8.0 12.0 0.00 0.00 0.00 60 1012.1
20260903214005 94 184 10.0 15.0 0.00 0.00 0.00 58 1012.2
20260903213505 95 186 6.0 12.0 0.00 0.00 0.00 57 1012.4
20260903213005 95 183 5.0 8.0 0.00 0.00 0.00 57 1012.5
20260903212006 95 205 6.0 13.0 0.00 0.00 0.00 55 1012.8
20260903211005 95 201 5.0 7.0 0.00 0.00 0.00 56 1012.9
20260903210505 94 204 6.0 9.0 0.00 0.00 0.00 55 1013.0
20260903204505 96 202 5.0 10.0 0.00 0.00 0.00 56 1013.5
20260903204005 96 233 5.0 9.0 0.00 0.00 0.00 56 1013.3
20260903203005 93 187 2.0 6.0 0.00 0.00 0.00 59 1013.4
20260903202005 93 221 6.0 9.0 0.00 0.00 0.00 57 1013.4
20260903201505 95 205 5.0 9.0 0.00 0.00 0.00 56 1013.4
20260903201005 95 184 6.0 12.0 0.00 0.00 0.00 55 1013.3
20260903200505 96 173 2.0 5.0 0.00 0.00 0.00 57 1013.3
20260903200005 95 211 3.0 10.0 0.00 0.00 0.00 56 1013.3
20260903195505 95 218 5.0 10.0 0.00 0.00 0.00 55 1013.3
20260903194005 95 179 5.0 8.0 0.00 0.00 0.00 56 1013.7
20260903193005 95 217 6.0 10.0 0.00 0.00 0.00 54 1013.5
20260903192005 94 180 8.0 13.0 0.00 0.00 0.00 55 1013.7
20260903191504 94 185 5.0 12.0 0.00 0.00 0.00 56 1013.9
20260903190504 94 171 5.0 8.0 0.00 0.00 0.00 57 1014.0
20260903190005 94 192 7.0 10.0 0.00 0.00 0.00 57 1014.0
20260903185005 94 181 6.0 8.0 0.00 0.00 0.00 59 1013.9
20260903184505 94 170 7.0 10.0 0.00 0.00 0.00 58 1013.8
20260903184005 94 141 5.0 8.0 0.00 0.00 0.00 59 1013.9
20260903183006 94 191 4.0 7.0 0.00 0.00 0.00 60 1014.0
20260903181505 90 214 1.0 2.0 0.00 0.00 0.00 62 1014.2
20260903180004 92 173 3.0 6.0 0.00 0.00 0.00 64 1014.3
20260903174505 88 158 3.0 6.0 0.00 0.00 0.00 68 1014.6
20260903172504 89 161 3.0 5.0 0.00 0.00 0.00 64 1014.7
20260903172005 89 123 3.0 6.0 0.00 0.00 0.00 64 1014.6
20260903170505 87 139 3.0 6.0 0.00 0.00 0.00 67 1014.6
20260903165004 88 154 5.0 7.0 0.00 0.00 0.00 67 1014.8
20260903164004 89 174 3.0 5.0 0.00 0.00 0.00 65 1014.8